User: anonymous   Login
Location: Theydon Bois
(51.6750°N, 0.1050°E)
Time: 03:54:57
(UTC+01:00)
Language:

FengYun 1-2 T - Orbit

View from above orbital plane
View from above orbital plane
View from above satellite
View from above satellite

Ground track
Ground track

The orbit data is extracted from the following two-line orbital elements,

1 20855U 90081T   17294.89169230  .00000072  00000-0  66510-4 0  9990
2 20855  98.7936 324.1246 0025039  66.4049 354.5898 14.08641241394609
Epoch (UTC): 21 October 2017 21:24:02
Eccentricity: 0.0025039
inclination: 98.7936°
perigee height: 846 km
apogee height: 882 km
right ascension of ascending node: 324.1246°
argument of perigee: 66.4049°
revolutions per day: 14.08641241
mean anomaly at epoch: 354.5898°
orbit number at epoch: 39460

The dashed part of the orbit path shows where the satellite is in the earth's shadow,  

DLR